Year,Month,Day,Hour,Minute,Value (Times are PST for temperature in C)
2006,07,20,00,00,14.70
2006,07,20,00,01,14.70
2006,07,20,00,02,14.70
2006,07,20,00,03,14.70
2006,07,20,00,04,14.70
2006,07,20,00,05,14.70
2006,07,20,00,06,14.60
2006,07,20,00,07,14.60
2006,07,20,00,08,14.50
2006,07,20,00,09,14.50
2006,07,20,00,10,14.50
2006,07,20,00,11,14.40
2006,07,20,00,12,14.40
2006,07,20,00,13,14.40
2006,07,20,00,14,14.30
2006,07,20,00,15,14.30
2006,07,20,00,16,14.30
2006,07,20,00,17,14.30
2006,07,20,00,18,14.30
2006,07,20,00,19,14.20
2006,07,20,00,20,14.20
2006,07,20,00,21,14.20
2006,07,20,00,22,14.20
2006,07,20,00,23,14.20
2006,07,20,00,24,14.20
2006,07,20,00,25,14.20
2006,07,20,00,26,14.20
2006,07,20,00,27,14.20
2006,07,20,00,28,14.10
2006,07,20,00,29,14.10
2006,07,20,00,30,14.10
2006,07,20,00,31,14.00
2006,07,20,00,32,14.00
2006,07,20,00,33,14.00
2006,07,20,00,34,14.00
2006,07,20,00,35,14.00
2006,07,20,00,36,14.00
2006,07,20,00,37,14.00
2006,07,20,00,38,14.00
2006,07,20,00,39,14.00
2006,07,20,00,40,14.00
2006,07,20,00,41,14.00
2006,07,20,00,42,14.00
2006,07,20,00,43,14.00
2006,07,20,00,44,14.00
2006,07,20,00,45,14.00
2006,07,20,00,46,14.10
2006,07,20,00,47,14.10
2006,07,20,00,48,14.00
2006,07,20,00,49,14.00
2006,07,20,00,50,14.00
2006,07,20,00,51,14.00
2006,07,20,00,52,14.00
2006,07,20,00,53,14.00
2006,07,20,00,54,14.00
2006,07,20,00,55,14.00
2006,07,20,00,56,14.00
2006,07,20,00,57,14.00
2006,07,20,00,58,14.00
2006,07,20,00,59,13.90
2006,07,20,01,00,13.90
2006,07,20,01,01,13.90
2006,07,20,01,02,13.90
2006,07,20,01,03,13.80
2006,07,20,01,04,13.80
2006,07,20,01,05,13.70
2006,07,20,01,06,13.70
2006,07,20,01,07,13.70
2006,07,20,01,08,13.70
2006,07,20,01,09,13.60
2006,07,20,01,10,13.60
2006,07,20,01,11,13.60
2006,07,20,01,12,13.50
2006,07,20,01,13,13.50
2006,07,20,01,14,13.40
2006,07,20,01,15,13.40
2006,07,20,01,16,13.30
2006,07,20,01,17,13.30
2006,07,20,01,18,13.30
2006,07,20,01,19,13.30
2006,07,20,01,20,13.30
2006,07,20,01,21,13.30
2006,07,20,01,22,13.30
2006,07,20,01,23,13.20
2006,07,20,01,24,13.20
2006,07,20,01,25,13.20
2006,07,20,01,26,13.20
2006,07,20,01,27,13.20
2006,07,20,01,28,13.20
2006,07,20,01,29,13.20
2006,07,20,01,30,13.10
2006,07,20,01,31,13.10
2006,07,20,01,32,13.10
2006,07,20,01,33,13.10
2006,07,20,01,34,13.10
2006,07,20,01,35,13.10
2006,07,20,01,36,13.10
2006,07,20,01,37,13.00
2006,07,20,01,38,13.00
2006,07,20,01,39,13.00
2006,07,20,01,40,13.00
2006,07,20,01,41,13.00
2006,07,20,01,42,12.90
2006,07,20,01,43,12.90
2006,07,20,01,44,12.90
2006,07,20,01,45,12.90
2006,07,20,01,46,12.90
2006,07,20,01,47,12.90
2006,07,20,01,48,12.90
2006,07,20,01,49,12.90
2006,07,20,01,50,12.80
2006,07,20,01,51,12.80
2006,07,20,01,52,12.80
2006,07,20,01,53,12.80
2006,07,20,01,54,12.80
2006,07,20,01,55,12.80
2006,07,20,01,56,12.80
2006,07,20,01,57,12.80
2006,07,20,01,58,12.70
2006,07,20,01,59,12.70
2006,07,20,02,00,12.70
2006,07,20,02,01,12.70
2006,07,20,02,02,12.70
2006,07,20,02,03,12.70
2006,07,20,02,04,12.60
2006,07,20,02,05,12.60
2006,07,20,02,06,12.60
2006,07,20,02,07,12.60
2006,07,20,02,08,12.60
2006,07,20,02,09,12.60
2006,07,20,02,10,12.60
2006,07,20,02,11,12.60
2006,07,20,02,12,12.50
2006,07,20,02,13,12.50
2006,07,20,02,14,12.50
2006,07,20,02,15,12.50
2006,07,20,02,16,12.50
2006,07,20,02,17,12.50
2006,07,20,02,18,12.40
2006,07,20,02,19,12.40
2006,07,20,02,20,12.40
2006,07,20,02,21,12.40
2006,07,20,02,22,12.40
2006,07,20,02,23,12.40
2006,07,20,02,24,12.40
2006,07,20,02,25,12.40
2006,07,20,02,26,12.40
2006,07,20,02,27,12.40
2006,07,20,02,28,12.40
2006,07,20,02,29,12.40
2006,07,20,02,30,12.40
2006,07,20,02,31,12.30
2006,07,20,02,32,12.30
2006,07,20,02,33,12.30
2006,07,20,02,34,12.30
2006,07,20,02,35,12.30
2006,07,20,02,36,12.30
2006,07,20,02,37,12.30
2006,07,20,02,38,12.30
2006,07,20,02,39,12.30
2006,07,20,02,40,12.30
2006,07,20,02,41,12.30
2006,07,20,02,42,12.30
2006,07,20,02,43,12.30
2006,07,20,02,44,12.30
2006,07,20,02,45,12.30
2006,07,20,02,46,12.30
2006,07,20,02,47,12.20
2006,07,20,02,48,12.20
2006,07,20,02,49,12.20
2006,07,20,02,50,12.20
2006,07,20,02,51,12.20
2006,07,20,02,52,12.20
2006,07,20,02,53,12.20
2006,07,20,02,54,12.20
2006,07,20,02,55,12.20
2006,07,20,02,56,12.20
2006,07,20,02,57,12.20
2006,07,20,02,58,12.20
2006,07,20,02,59,12.10
2006,07,20,03,00,12.10
2006,07,20,03,01,12.10
2006,07,20,03,02,12.10
2006,07,20,03,03,12.00
2006,07,20,03,04,12.00
2006,07,20,03,05,12.00
2006,07,20,03,06,12.00
2006,07,20,03,07,11.90
2006,07,20,03,08,11.90
2006,07,20,03,09,11.90
2006,07,20,03,10,11.90
2006,07,20,03,11,11.90
2006,07,20,03,12,11.90
2006,07,20,03,13,11.90
2006,07,20,03,14,11.90
2006,07,20,03,15,11.90
2006,07,20,03,16,11.80
2006,07,20,03,17,11.80
2006,07,20,03,18,11.80
2006,07,20,03,19,11.80
2006,07,20,03,20,11.80
2006,07,20,03,21,11.80
2006,07,20,03,22,11.80
2006,07,20,03,23,11.80
2006,07,20,03,24,11.80
2006,07,20,03,25,11.80
2006,07,20,03,26,11.80
2006,07,20,03,27,11.80
2006,07,20,03,28,11.80
2006,07,20,03,29,11.70
2006,07,20,03,30,11.70
2006,07,20,03,31,11.70
2006,07,20,03,32,11.70
2006,07,20,03,33,11.70
2006,07,20,03,34,11.70
2006,07,20,03,35,11.70
2006,07,20,03,36,11.70
2006,07,20,03,37,11.70
2006,07,20,03,38,11.70
2006,07,20,03,39,11.70
2006,07,20,03,40,11.70
2006,07,20,03,41,11.70
2006,07,20,03,42,11.70
2006,07,20,03,43,11.60
2006,07,20,03,44,11.60
2006,07,20,03,45,11.60
2006,07,20,03,46,11.60
2006,07,20,03,47,11.60
2006,07,20,03,48,11.60
2006,07,20,03,49,11.60
2006,07,20,03,50,11.60
2006,07,20,03,51,11.60
2006,07,20,03,52,11.60
2006,07,20,03,53,11.60
2006,07,20,03,54,11.60
2006,07,20,03,55,11.60
2006,07,20,03,56,11.60
2006,07,20,03,57,11.60
2006,07,20,03,58,11.60
2006,07,20,03,59,11.60
2006,07,20,04,00,11.60
2006,07,20,04,01,11.60
2006,07,20,04,02,11.60
2006,07,20,04,03,11.60
2006,07,20,04,04,11.60
2006,07,20,04,05,11.60
2006,07,20,04,06,11.60
2006,07,20,04,07,11.70
2006,07,20,04,08,11.70
2006,07,20,04,09,11.80
2006,07,20,04,10,11.80
2006,07,20,04,11,11.80
2006,07,20,04,12,11.80
2006,07,20,04,13,11.80
2006,07,20,04,14,11.80
2006,07,20,04,15,11.80
2006,07,20,04,16,11.80
2006,07,20,04,17,11.80
2006,07,20,04,18,11.80
2006,07,20,04,19,11.70
2006,07,20,04,20,11.70
2006,07,20,04,21,11.70
2006,07,20,04,22,11.60
2006,07,20,04,23,11.60
2006,07,20,04,24,11.60
2006,07,20,04,25,11.60
2006,07,20,04,26,11.60
2006,07,20,04,27,11.60
2006,07,20,04,28,11.60
2006,07,20,04,29,11.60
2006,07,20,04,30,11.60
2006,07,20,04,31,11.60
2006,07,20,04,32,11.60
2006,07,20,04,33,11.60
2006,07,20,04,34,11.60
2006,07,20,04,35,11.60
2006,07,20,04,36,11.60
2006,07,20,04,37,11.60
2006,07,20,04,38,11.50
2006,07,20,04,39,11.50
2006,07,20,04,40,11.60
2006,07,20,04,41,11.60
2006,07,20,04,42,11.60
2006,07,20,04,43,11.60
2006,07,20,04,44,11.60
2006,07,20,04,45,11.60
2006,07,20,04,46,11.60
2006,07,20,04,47,11.60
2006,07,20,04,48,11.60
2006,07,20,04,49,11.60
2006,07,20,04,50,11.60
2006,07,20,04,51,11.60
2006,07,20,04,52,11.60
2006,07,20,04,53,11.60
2006,07,20,04,54,11.60
2006,07,20,04,55,11.60
2006,07,20,04,56,11.60
2006,07,20,04,57,11.60
2006,07,20,04,58,11.60
2006,07,20,04,59,11.60
2006,07,20,05,00,11.60
2006,07,20,05,01,11.60
2006,07,20,05,02,11.60
2006,07,20,05,03,11.50
2006,07,20,05,04,11.50
2006,07,20,05,05,11.40
2006,07,20,05,06,11.40
2006,07,20,05,07,11.40
2006,07,20,05,08,11.40
2006,07,20,05,09,11.40
2006,07,20,05,10,11.40
2006,07,20,05,11,11.40
2006,07,20,05,12,11.40
2006,07,20,05,13,11.40
2006,07,20,05,14,11.40
2006,07,20,05,15,11.40
2006,07,20,05,16,11.40
2006,07,20,05,17,11.40
2006,07,20,05,18,11.40
2006,07,20,05,19,11.40
2006,07,20,05,20,11.40
2006,07,20,05,21,11.40
2006,07,20,05,22,11.40
2006,07,20,05,23,11.40
2006,07,20,05,24,11.40
2006,07,20,05,25,11.40
2006,07,20,05,26,11.40
2006,07,20,05,27,11.40
2006,07,20,05,28,11.40
2006,07,20,05,29,11.40
2006,07,20,05,30,11.40
2006,07,20,05,31,11.40
2006,07,20,05,32,11.40
2006,07,20,05,33,11.40
2006,07,20,05,34,11.40
2006,07,20,05,35,11.40
2006,07,20,05,36,11.40
2006,07,20,05,37,11.40
2006,07,20,05,38,11.40
2006,07,20,05,39,11.40
2006,07,20,05,40,11.40
2006,07,20,05,41,11.40
2006,07,20,05,42,11.40
2006,07,20,05,43,11.40
2006,07,20,05,44,11.40
2006,07,20,05,45,11.40
2006,07,20,05,46,11.40
2006,07,20,05,47,11.40
2006,07,20,05,48,11.40
2006,07,20,05,49,11.40
2006,07,20,05,50,11.40
2006,07,20,05,51,11.40
2006,07,20,05,52,11.40
2006,07,20,05,53,11.40
2006,07,20,05,54,11.40
2006,07,20,05,55,11.40
2006,07,20,05,56,11.40
2006,07,20,05,57,11.40
2006,07,20,05,58,11.40
2006,07,20,05,59,11.40
2006,07,20,06,00,11.40
2006,07,20,06,01,11.40
2006,07,20,06,02,11.40
2006,07,20,06,03,11.50
2006,07,20,06,04,11.60
2006,07,20,06,05,11.60
2006,07,20,06,06,11.60
2006,07,20,06,07,11.60
2006,07,20,06,08,11.60
2006,07,20,06,09,11.60
2006,07,20,06,10,11.70
2006,07,20,06,11,11.70
2006,07,20,06,12,11.70
2006,07,20,06,13,11.80
2006,07,20,06,14,11.80
2006,07,20,06,15,11.80
2006,07,20,06,16,11.80
2006,07,20,06,17,11.80
2006,07,20,06,18,11.90
2006,07,20,06,19,11.90
2006,07,20,06,20,11.90
2006,07,20,06,21,12.00
2006,07,20,06,22,12.00
2006,07,20,06,23,12.00
2006,07,20,06,24,12.10
2006,07,20,06,25,12.10
2006,07,20,06,26,12.20
2006,07,20,06,27,12.20
2006,07,20,06,28,12.20
2006,07,20,06,29,12.20
2006,07,20,06,30,12.30
2006,07,20,06,31,12.40
2006,07,20,06,32,12.40
2006,07,20,06,33,12.50
2006,07,20,06,34,12.60
2006,07,20,06,35,12.60
2006,07,20,06,36,12.70
2006,07,20,06,37,12.70
2006,07,20,06,38,12.70
2006,07,20,06,39,12.80
2006,07,20,06,40,12.80
2006,07,20,06,41,12.90
2006,07,20,06,42,12.90
2006,07,20,06,43,13.00
2006,07,20,06,44,13.00
2006,07,20,06,45,13.10
2006,07,20,06,46,13.20
2006,07,20,06,47,13.20
2006,07,20,06,48,13.30
2006,07,20,06,49,13.30
2006,07,20,06,50,13.30
2006,07,20,06,51,13.40
2006,07,20,06,52,13.40
2006,07,20,06,53,13.50
2006,07,20,06,54,13.50
2006,07,20,06,55,13.60
2006,07,20,06,56,13.70
2006,07,20,06,57,13.70
2006,07,20,06,58,13.70
2006,07,20,06,59,13.80
2006,07,20,07,00,13.90
2006,07,20,07,01,13.90
2006,07,20,07,02,14.00
2006,07,20,07,03,14.00
2006,07,20,07,04,14.20
2006,07,20,07,05,14.20
2006,07,20,07,06,14.30
2006,07,20,07,07,14.40
2006,07,20,07,08,14.50
2006,07,20,07,09,14.50
2006,07,20,07,10,14.60
2006,07,20,07,11,14.60
2006,07,20,07,12,14.70
2006,07,20,07,13,14.80
2006,07,20,07,14,14.80
2006,07,20,07,15,14.80
2006,07,20,07,16,14.90
2006,07,20,07,17,14.90
2006,07,20,07,18,15.00
2006,07,20,07,19,15.10
2006,07,20,07,20,15.10
2006,07,20,07,21,15.30
2006,07,20,07,22,15.40
2006,07,20,07,23,15.50
2006,07,20,07,24,15.60
2006,07,20,07,25,15.60
2006,07,20,07,26,15.70
2006,07,20,07,27,15.80
2006,07,20,07,28,15.80
2006,07,20,07,29,15.90
2006,07,20,07,30,16.00
2006,07,20,07,31,16.10
2006,07,20,07,32,16.20
2006,07,20,07,33,16.30
2006,07,20,07,34,16.40
2006,07,20,07,35,16.40
2006,07,20,07,36,16.40
2006,07,20,07,37,16.50
2006,07,20,07,38,16.50
2006,07,20,07,39,16.40
2006,07,20,07,40,16.40
2006,07,20,07,41,16.40
2006,07,20,07,42,16.40
2006,07,20,07,43,16.40
2006,07,20,07,44,16.40
2006,07,20,07,45,16.40
2006,07,20,07,46,16.40
2006,07,20,07,47,16.40
2006,07,20,07,48,16.40
2006,07,20,07,49,16.40
2006,07,20,07,50,16.50
2006,07,20,07,51,16.60
2006,07,20,07,52,16.60
2006,07,20,07,53,16.60
2006,07,20,07,54,16.70
2006,07,20,07,55,16.70
2006,07,20,07,56,16.70
2006,07,20,07,57,16.80
2006,07,20,07,58,16.80
2006,07,20,07,59,16.90
2006,07,20,08,00,16.90
2006,07,20,08,01,16.90
2006,07,20,08,02,16.90
2006,07,20,08,03,17.00
2006,07,20,08,04,17.00
2006,07,20,08,05,17.00
2006,07,20,08,06,17.00
2006,07,20,08,07,17.00
2006,07,20,08,08,17.00
2006,07,20,08,09,17.00
2006,07,20,08,10,17.00
2006,07,20,08,11,17.00
2006,07,20,08,12,17.00
2006,07,20,08,13,17.10
2006,07,20,08,14,17.20
2006,07,20,08,15,17.20
2006,07,20,08,16,17.30
2006,07,20,08,17,17.30
2006,07,20,08,18,17.40
2006,07,20,08,19,17.40
2006,07,20,08,20,17.40
2006,07,20,08,21,17.50
2006,07,20,08,22,17.50
2006,07,20,08,23,17.50
2006,07,20,08,24,17.50
2006,07,20,08,25,17.50
2006,07,20,08,26,17.60
2006,07,20,08,27,17.60
2006,07,20,08,28,17.60
2006,07,20,08,29,17.70
2006,07,20,08,30,17.70
2006,07,20,08,31,17.80
2006,07,20,08,32,17.80
2006,07,20,08,33,17.90
2006,07,20,08,34,18.00
2006,07,20,08,35,18.10
2006,07,20,08,36,18.20
2006,07,20,08,37,18.30
2006,07,20,08,38,18.40
2006,07,20,08,39,18.40
2006,07,20,08,40,18.40
2006,07,20,08,41,18.40
2006,07,20,08,42,18.50
2006,07,20,08,43,18.50
2006,07,20,08,44,18.60
2006,07,20,08,45,18.60
2006,07,20,08,46,18.70
2006,07,20,08,47,18.80
2006,07,20,08,48,18.90
2006,07,20,08,49,18.90
2006,07,20,08,50,18.90
2006,07,20,08,51,18.90
2006,07,20,08,52,18.90
2006,07,20,08,53,18.80
2006,07,20,08,54,18.80
2006,07,20,08,55,18.80
2006,07,20,08,56,18.80
2006,07,20,08,57,18.80
2006,07,20,08,58,18.80
2006,07,20,08,59,18.80
2006,07,20,09,00,18.80
2006,07,20,09,01,18.90
2006,07,20,09,02,18.90
2006,07,20,09,03,18.90
2006,07,20,09,04,18.90
2006,07,20,09,05,18.90
2006,07,20,09,06,18.90
2006,07,20,09,07,18.80
2006,07,20,09,08,18.80
2006,07,20,09,09,18.90
2006,07,20,09,10,18.90
2006,07,20,09,11,19.00
2006,07,20,09,12,19.10
2006,07,20,09,13,19.10
2006,07,20,09,14,19.10
2006,07,20,09,15,19.20
2006,07,20,09,16,19.20
2006,07,20,09,17,19.30
2006,07,20,09,18,19.30
2006,07,20,09,19,19.30
2006,07,20,09,20,19.20
2006,07,20,09,21,19.10
2006,07,20,09,22,19.10
2006,07,20,09,23,19.00
2006,07,20,09,24,18.90
2006,07,20,09,25,18.90
2006,07,20,09,26,18.90
2006,07,20,09,27,18.90
2006,07,20,09,28,18.90
2006,07,20,09,29,18.80
2006,07,20,09,30,18.80
2006,07,20,09,31,18.80
2006,07,20,09,32,18.80
2006,07,20,09,33,18.70
2006,07,20,09,34,18.70
2006,07,20,09,35,18.80
2006,07,20,09,36,18.80
2006,07,20,09,37,18.90
2006,07,20,09,38,18.90
2006,07,20,09,39,18.90
2006,07,20,09,40,18.90
2006,07,20,09,41,18.90
2006,07,20,09,42,18.90
2006,07,20,09,43,18.90
2006,07,20,09,44,18.90
2006,07,20,09,45,19.00
2006,07,20,09,46,19.10
2006,07,20,09,47,19.10
2006,07,20,09,48,19.30
2006,07,20,09,49,19.50
2006,07,20,09,50,19.60
2006,07,20,09,51,19.80
2006,07,20,09,52,19.90
2006,07,20,09,53,20.10
2006,07,20,09,54,20.20
2006,07,20,09,55,20.20
2006,07,20,09,56,20.30
2006,07,20,09,57,20.40
2006,07,20,09,58,20.50
2006,07,20,09,59,20.60
2006,07,20,10,00,20.60
2006,07,20,10,01,20.70
2006,07,20,10,02,20.70
2006,07,20,10,03,20.80
2006,07,20,10,04,20.80
2006,07,20,10,05,20.90
2006,07,20,10,06,21.00
2006,07,20,10,07,21.00
2006,07,20,10,08,21.10
2006,07,20,10,09,21.20
2006,07,20,10,10,21.30
2006,07,20,10,11,21.30
2006,07,20,10,12,21.30
2006,07,20,10,13,21.30
2006,07,20,10,14,21.30
2006,07,20,10,15,21.30
2006,07,20,10,16,21.30
2006,07,20,10,17,21.30
2006,07,20,10,18,21.40
2006,07,20,10,19,21.40
2006,07,20,10,20,21.40
2006,07,20,10,21,21.30
2006,07,20,10,22,21.30
2006,07,20,10,23,21.30
2006,07,20,10,24,21.20
2006,07,20,10,25,21.20
2006,07,20,10,26,21.20
2006,07,20,10,27,21.20
2006,07,20,10,28,21.30
2006,07,20,10,29,21.30
2006,07,20,10,30,21.30
2006,07,20,10,31,21.30
2006,07,20,10,32,21.30
2006,07,20,10,33,21.30
2006,07,20,10,34,21.40
2006,07,20,10,35,21.40
2006,07,20,10,36,21.50
2006,07,20,10,37,21.60
2006,07,20,10,38,21.60
2006,07,20,10,39,21.70
2006,07,20,10,40,21.90
2006,07,20,10,41,22.00
2006,07,20,10,42,22.10
2006,07,20,10,43,22.20
2006,07,20,10,44,22.30
2006,07,20,10,45,22.40
2006,07,20,10,46,22.40
2006,07,20,10,47,22.50
2006,07,20,10,48,22.50
2006,07,20,10,49,22.60
2006,07,20,10,50,22.60
2006,07,20,10,51,22.60
2006,07,20,10,52,22.60
2006,07,20,10,53,22.60
2006,07,20,10,54,22.60
2006,07,20,10,55,22.50
2006,07,20,10,56,22.50
2006,07,20,10,57,22.50
2006,07,20,10,58,22.50
2006,07,20,10,59,22.50
2006,07,20,11,00,22.50
2006,07,20,11,01,22.50
2006,07,20,11,02,22.40
2006,07,20,11,03,22.40
2006,07,20,11,04,22.50
2006,07,20,11,05,22.50
2006,07,20,11,06,22.50
2006,07,20,11,07,22.40
2006,07,20,11,08,22.40
2006,07,20,11,09,22.40
2006,07,20,11,10,22.40
2006,07,20,11,11,22.50
2006,07,20,11,12,22.60
2006,07,20,11,13,22.60
2006,07,20,11,14,22.60
2006,07,20,11,15,22.70
2006,07,20,11,16,22.80
2006,07,20,11,17,23.00
2006,07,20,11,18,23.00
2006,07,20,11,19,22.90
2006,07,20,11,20,22.90
2006,07,20,11,21,23.00
2006,07,20,11,22,23.10
2006,07,20,11,23,23.20
2006,07,20,11,24,23.30
2006,07,20,11,25,23.30
2006,07,20,11,26,23.30
2006,07,20,11,27,23.30
2006,07,20,11,28,23.20
2006,07,20,11,29,23.10
2006,07,20,11,30,23.00
2006,07,20,11,31,22.90
2006,07,20,11,32,22.90
2006,07,20,11,33,22.80
2006,07,20,11,34,22.80
2006,07,20,11,35,22.70
2006,07,20,11,36,22.70
2006,07,20,11,37,22.70
2006,07,20,11,38,22.70
2006,07,20,11,39,22.70
2006,07,20,11,40,22.60
2006,07,20,11,41,22.60
2006,07,20,11,42,22.50
2006,07,20,11,43,22.40
2006,07,20,11,44,22.20
2006,07,20,11,45,22.20
2006,07,20,11,46,22.30
2006,07,20,11,47,22.50
2006,07,20,11,48,22.60
2006,07,20,11,49,22.70
2006,07,20,11,50,22.80
2006,07,20,11,51,22.80
2006,07,20,11,52,22.90
2006,07,20,11,53,22.90
2006,07,20,11,54,22.90
2006,07,20,11,55,22.90
2006,07,20,11,56,22.80
2006,07,20,11,57,22.70
2006,07,20,11,58,22.70
2006,07,20,11,59,22.70
2006,07,20,12,00,22.70
2006,07,20,12,01,22.60
2006,07,20,12,02,22.70
2006,07,20,12,03,22.60
2006,07,20,12,04,22.50
2006,07,20,12,05,22.30
2006,07,20,12,06,22.30
2006,07,20,12,07,22.40
2006,07,20,12,08,22.40
2006,07,20,12,09,22.60
2006,07,20,12,10,22.70
2006,07,20,12,11,22.90
2006,07,20,12,12,22.90
2006,07,20,12,13,22.90
2006,07,20,12,14,22.90
2006,07,20,12,15,22.90
2006,07,20,12,16,22.80
2006,07,20,12,17,22.70
2006,07,20,12,18,22.70
2006,07,20,12,19,22.70
2006,07,20,12,20,22.70
2006,07,20,12,21,22.80
2006,07,20,12,22,22.90
2006,07,20,12,23,22.90
2006,07,20,12,24,22.90
2006,07,20,12,25,22.90
2006,07,20,12,26,22.90
2006,07,20,12,27,22.90
2006,07,20,12,28,22.90
2006,07,20,12,29,22.90
2006,07,20,12,30,22.90
2006,07,20,12,31,23.00
2006,07,20,12,32,23.10
2006,07,20,12,33,23.20
2006,07,20,12,34,23.20
2006,07,20,12,35,23.10
2006,07,20,12,36,23.00
2006,07,20,12,37,22.80
2006,07,20,12,38,22.80
2006,07,20,12,39,22.80
2006,07,20,12,40,22.70
2006,07,20,12,41,22.50
2006,07,20,12,42,22.60
2006,07,20,12,43,22.60
2006,07,20,12,44,22.70
2006,07,20,12,45,22.70
2006,07,20,12,46,22.70
2006,07,20,12,47,22.60
2006,07,20,12,48,22.70
2006,07,20,12,49,22.60
2006,07,20,12,50,22.70
2006,07,20,12,51,22.70
2006,07,20,12,52,22.70
2006,07,20,12,53,22.80
2006,07,20,12,54,22.80
2006,07,20,12,55,22.90
2006,07,20,12,56,22.90
2006,07,20,12,57,23.00
2006,07,20,12,58,23.10
2006,07,20,12,59,23.10
2006,07,20,13,00,23.30
2006,07,20,13,01,23.30
2006,07,20,13,02,23.30
2006,07,20,13,03,23.20
2006,07,20,13,04,23.20
2006,07,20,13,05,23.10
2006,07,20,13,06,23.10
2006,07,20,13,07,23.10
2006,07,20,13,08,22.90
2006,07,20,13,09,22.80
2006,07,20,13,10,22.60
2006,07,20,13,11,22.60
2006,07,20,13,12,22.60
2006,07,20,13,13,22.50
2006,07,20,13,14,22.40
2006,07,20,13,15,22.30
2006,07,20,13,16,22.20
2006,07,20,13,17,22.20
2006,07,20,13,18,22.20
2006,07,20,13,19,22.20
2006,07,20,13,20,22.20
2006,07,20,13,21,22.30
2006,07,20,13,22,22.30
2006,07,20,13,23,22.70
2006,07,20,13,24,22.80
2006,07,20,13,25,22.80
2006,07,20,13,26,22.80
2006,07,20,13,27,22.80
2006,07,20,13,28,22.90
2006,07,20,13,29,22.90
2006,07,20,13,30,22.90
2006,07,20,13,31,22.90
2006,07,20,13,32,23.00
2006,07,20,13,33,23.10
2006,07,20,13,34,23.10
2006,07,20,13,35,23.10
2006,07,20,13,36,23.20
2006,07,20,13,37,23.20
2006,07,20,13,38,23.20
2006,07,20,13,39,23.20
2006,07,20,13,40,23.20
2006,07,20,13,41,23.20
2006,07,20,13,42,23.30
2006,07,20,13,43,23.30
2006,07,20,13,44,23.30
2006,07,20,13,45,23.30
2006,07,20,13,46,23.30
2006,07,20,13,47,23.30
2006,07,20,13,48,23.30
2006,07,20,13,49,23.30
2006,07,20,13,50,23.30
2006,07,20,13,51,23.30
2006,07,20,13,52,23.40
2006,07,20,13,53,23.40
2006,07,20,13,54,23.40
2006,07,20,13,55,23.60
2006,07,20,13,56,23.60
2006,07,20,13,57,23.60
2006,07,20,13,58,23.70
2006,07,20,13,59,23.70
2006,07,20,14,00,23.70
2006,07,20,14,01,23.80
2006,07,20,14,02,23.80
2006,07,20,14,03,23.80
2006,07,20,14,04,23.90
2006,07,20,14,05,24.10
2006,07,20,14,06,24.10
2006,07,20,14,07,24.10
2006,07,20,14,08,24.10
2006,07,20,14,09,24.20
2006,07,20,14,10,24.30
2006,07,20,14,11,24.20
2006,07,20,14,12,24.20
2006,07,20,14,13,24.20
2006,07,20,14,14,24.30
2006,07,20,14,15,24.30
2006,07,20,14,16,24.30
2006,07,20,14,17,24.20
2006,07,20,14,18,24.10
2006,07,20,14,19,24.10
2006,07,20,14,20,24.10
2006,07,20,14,21,23.90
2006,07,20,14,22,23.80
2006,07,20,14,23,23.70
2006,07,20,14,24,23.70
2006,07,20,14,25,23.70
2006,07,20,14,26,23.80
2006,07,20,14,27,23.70
2006,07,20,14,28,23.70
2006,07,20,14,29,23.70
2006,07,20,14,30,23.70
2006,07,20,14,31,23.70
2006,07,20,14,32,23.70
2006,07,20,14,33,23.70
2006,07,20,14,34,23.80
2006,07,20,14,35,23.90
2006,07,20,14,36,24.00
2006,07,20,14,37,24.10
2006,07,20,14,38,24.10
2006,07,20,14,39,24.10
2006,07,20,14,40,24.20
2006,07,20,14,41,24.10
2006,07,20,14,42,24.00
2006,07,20,14,43,23.90
2006,07,20,14,44,23.90
2006,07,20,14,45,24.00
2006,07,20,14,46,24.10
2006,07,20,14,47,24.20
2006,07,20,14,48,24.30
2006,07,20,14,49,24.50
2006,07,20,14,50,24.50
2006,07,20,14,51,24.70
2006,07,20,14,52,24.80
2006,07,20,14,53,24.90
2006,07,20,14,54,25.00
2006,07,20,14,55,25.00
2006,07,20,14,56,25.00
2006,07,20,14,57,25.10
2006,07,20,14,58,25.10
2006,07,20,14,59,25.10
2006,07,20,15,00,25.10
2006,07,20,15,01,25.20
2006,07,20,15,02,25.20
2006,07,20,15,03,25.30
2006,07,20,15,04,25.40
2006,07,20,15,05,25.40
2006,07,20,15,06,25.50
2006,07,20,15,07,25.70
2006,07,20,15,08,25.70
2006,07,20,15,09,25.80
2006,07,20,15,10,25.80
2006,07,20,15,11,25.90
2006,07,20,15,12,25.90
2006,07,20,15,13,26.00
2006,07,20,15,14,26.00
2006,07,20,15,15,26.10
2006,07,20,15,16,26.20
2006,07,20,15,17,26.20
2006,07,20,15,18,26.20
2006,07,20,15,19,26.30
2006,07,20,15,20,26.30
2006,07,20,15,21,26.40
2006,07,20,15,22,26.40
2006,07,20,15,23,26.40
2006,07,20,15,24,26.40
2006,07,20,15,25,26.40
2006,07,20,15,26,26.60
2006,07,20,15,27,26.70
2006,07,20,15,28,26.80
2006,07,20,15,29,27.10
2006,07,20,15,30,27.20
2006,07,20,15,31,27.20
2006,07,20,15,32,27.30
2006,07,20,15,33,27.30
2006,07,20,15,34,27.30
2006,07,20,15,35,27.20
2006,07,20,15,36,27.10
2006,07,20,15,37,27.00
2006,07,20,15,38,26.90
2006,07,20,15,39,26.80
2006,07,20,15,40,26.70
2006,07,20,15,41,26.60
2006,07,20,15,42,26.50
2006,07,20,15,43,26.40
2006,07,20,15,44,26.40
2006,07,20,15,45,26.40
2006,07,20,15,46,26.40
2006,07,20,15,47,26.40
2006,07,20,15,48,26.40
2006,07,20,15,49,26.40
2006,07,20,15,50,26.50
2006,07,20,15,51,26.60
2006,07,20,15,52,26.50
2006,07,20,15,53,26.40
2006,07,20,15,54,26.30
2006,07,20,15,55,26.50
2006,07,20,15,56,26.60
2006,07,20,15,57,26.60
2006,07,20,15,58,26.90
2006,07,20,15,59,26.90
2006,07,20,16,00,27.00
2006,07,20,16,01,26.90
2006,07,20,16,02,26.90
2006,07,20,16,03,26.90
2006,07,20,16,04,27.00
2006,07,20,16,05,27.20
2006,07,20,16,06,27.20
2006,07,20,16,07,27.30
2006,07,20,16,08,27.30
2006,07,20,16,09,27.20
2006,07,20,16,10,27.10
2006,07,20,16,11,26.90
2006,07,20,16,12,26.80
2006,07,20,16,13,26.80
2006,07,20,16,14,26.80
2006,07,20,16,15,26.80
2006,07,20,16,16,26.80
2006,07,20,16,17,26.80
2006,07,20,16,18,26.90
2006,07,20,16,19,26.90
2006,07,20,16,20,26.90
2006,07,20,16,21,27.10
2006,07,20,16,22,27.20
2006,07,20,16,23,27.20
2006,07,20,16,24,27.20
2006,07,20,16,25,27.30
2006,07,20,16,26,27.40
2006,07,20,16,27,27.60
2006,07,20,16,28,27.60
2006,07,20,16,29,27.50
2006,07,20,16,30,27.40
2006,07,20,16,31,27.40
2006,07,20,16,32,27.30
2006,07,20,16,33,27.30
2006,07,20,16,34,27.30
2006,07,20,16,35,27.20
2006,07,20,16,36,27.20
2006,07,20,16,37,27.10
2006,07,20,16,38,26.90
2006,07,20,16,39,26.80
2006,07,20,16,40,26.80
2006,07,20,16,41,26.70
2006,07,20,16,42,26.60
2006,07,20,16,43,26.60
2006,07,20,16,44,26.60
2006,07,20,16,45,26.60
2006,07,20,16,46,26.60
2006,07,20,16,47,26.60
2006,07,20,16,48,26.60
2006,07,20,16,49,26.60
2006,07,20,16,50,26.60
2006,07,20,16,51,26.60
2006,07,20,16,52,26.60
2006,07,20,16,53,26.50
2006,07,20,16,54,26.40
2006,07,20,16,55,26.40
2006,07,20,16,56,26.60
2006,07,20,16,57,26.60
2006,07,20,16,58,26.60
2006,07,20,16,59,26.70
2006,07,20,17,00,26.70
2006,07,20,17,01,26.60
2006,07,20,17,02,26.70
2006,07,20,17,03,26.80
2006,07,20,17,04,26.70
2006,07,20,17,05,26.60
2006,07,20,17,06,26.50
2006,07,20,17,07,26.40
2006,07,20,17,08,26.40
2006,07,20,17,09,26.40
2006,07,20,17,10,26.40
2006,07,20,17,11,26.40
2006,07,20,17,12,26.30
2006,07,20,17,13,26.30
2006,07,20,17,14,26.30
2006,07,20,17,15,26.40
2006,07,20,17,16,26.40
2006,07,20,17,17,26.40
2006,07,20,17,18,26.40
2006,07,20,17,19,26.40